• Processing (Info)

  • MPEC 2014-A20 : 2014 AG5

    The following Minor Planet Electronic Circular may be linked-to from your own Web pages, but must not otherwise be redistributed electronically.

    A form allowing access to any MPEC is at the bottom of this page.


    Read MPEC 2014-A19 Read MPEC 2014-A21


    M.P.E.C. 2014-A20                                Issued 2014 Jan. 4, 00:40 UT
    
         The Minor Planet Electronic Circulars contain information on unusual
             minor planets and routine data on comets.  They are published
       on behalf of Commission 20 of the International Astronomical Union by the
              Minor Planet Center, Smithsonian Astrophysical Observatory,
                              Cambridge, MA 02138, U.S.A.
    
                 Prepared using the Tamkin Foundation Computer Network
    
                                  MPC@CFA.HARVARD.EDU
                URL https://www.minorplanetcenter.net/    ISSN 1523-6714
    
                                       2014 AG5
    
    Observations:
         K14A05G* C2014 01 02.30909 05 14 30.75 +19 05 50.6          19.8 VqEA020G96
         K14A05G  C2014 01 02.31956 05 14 29.49 +19 06 25.6          19.5 VqEA020G96
         K14A05G  C2014 01 02.32479 05 14 28.87 +19 06 43.5          19.5 VqEA020G96
         K14A05G  C2014 01 02.35583 05 14 25.09 +19 08 28.2          19.2 VqEA020G96
         K14A05G  C2014 01 02.35788 05 14 24.86 +19 08 35.2          19.5 VqEA020G96
         K14A05G  C2014 01 02.35992 05 14 24.60 +19 08 42.2          19.0 VqEA020G96
         K14A05G  C2014 01 02.36197 05 14 24.36 +19 08 49.0          19.3 VqEA020G96
         K14A05G KC2014 01 02.82954 05 13 39.99 +19 35 16.0          20.1 VqEA020A13
         K14A05G KC2014 01 02.84480 05 13 38.18 +19 36 07.8          20.1 VqEA020A13
         K14A05G KC2014 01 02.86009 05 13 36.47 +19 37 00.8          20.2 VqEA020A13
         K14A05G  C2014 01 02.89576 05 13 32.04 +19 38 59.3          19.4 VoEA020033
         K14A05G  C2014 01 02.89875 05 13 31.69 +19 39 09.1          19.4 VoEA020033
         K14A05G  C2014 01 02.90175 05 13 31.31 +19 39 19.9          19.4 VoEA020033
         K14A05G  C2014 01 02.99910 05 13 20.07 +19 44 48.4          19.3 VoEA020033
         K14A05G  C2014 01 03.00476 05 13 19.46 +19 45 06.1          19.3 VoEA020033
         K14A05G  C2014 01 03.05803 05 13 13.55 +19 48 04.8          19.4 VoEA020033
         K14A05G  C2014 01 03.06284 05 13 13.03 +19 48 19.6          19.4 VoEA020033
         K14A05G  C2014 01 03.12323 05 13 11.26 +19 52 01.7          20.1 VqEA020G96
         K14A05G  C2014 01 03.12566 05 13 11.00 +19 52 10.3          20.2 VqEA020G96
         K14A05G  C2014 01 03.12809 05 13 10.70 +19 52 18.7          20.3 VqEA020G96
         K14A05G KC2014 01 03.18593605 13 02.66 +19 55 31.2          19.8 VuEA020H21
         K14A05G KC2014 01 03.19034905 13 02.12 +19 55 46.1          20.3 VuEA020H21
         K14A05G KC2014 01 03.19136 05 13 03.04 +19 55 55.6          19.7 RqEA020448
         K14A05G KC2014 01 03.19502105 13 01.57 +19 56 01.7          19.7 VuEA020H21
         K14A05G KC2014 01 03.20574 05 13 01.32 +19 56 44.6          20.0 RqEA020448
         K14A05G KC2014 01 03.21804 05 12 59.82 +19 57 26.0          20.2 RqEA020448
    
    Observer details:
    033 Karl Schwarzschild Observatory, Tautenburg.  Observer B. Stecklum.  1.34-m
        f/4 Schmidt + CCD.
    448 Desert Moon Observatory.  Observer B. L. Stevens.  0.3-m
        Schmidt-Cassegrain + CCD.
    A13 Observatoire Naef, Marly.  Observer P. Kocher.  0.5-m f/3.3 Hypergraph
        + CCD.
    G96 Mt. Lemmon Survey.  Observer E. J. Christensen.  Measurers A. Boattini,
        E. J. Christensen, A. R. Gibbs, A. D. Grauer, R. E. Hill, J. A. Johnson,
        R. A. Kowalski, S. M. Larson, F. C. Shelly.  1.5-m reflector + CCD.
    H21 Astronomical Research Observatory, Westfield.  Observer R. Holmes.
        Measurers T. Linder, S. Foglia, L. Buzzi, T. Vorobjov.  0.61-m f/4.5
        astrograph + CCD.
    
    Orbital elements:
    2014 AG5                                                 Earth MOID = 0.1065 AU
    Epoch 2013 Nov. 4.0 TT = JDT 2456600.5                  MPC
    M  39.05542              (2000.0)            P               Q
    n   0.81781975     Peri.  264.83552     +0.98015524     -0.11894550
    a   1.1324812      Node   101.92853     +0.16977472     +0.91667375
    e   0.0365089      Incl.    9.32765     -0.10233403     +0.38152485
    P   1.21           H   22.4           G   0.15           U   9
    Residuals in seconds of arc
    140102 G96  0.3-  0.4+    140102 A13  0.6+  0.0     140103 G96  0.2+  0.0
    140102 G96  0.1+  0.2-    140102 033  0.3+  0.1+    140103 G96  0.1-  0.0
    140102 G96  0.3+  0.0     140102 033  0.3+  0.2-    140103 H21  0.2+  0.1-
    140102 G96  0.1-  0.2-    140102 033  0.1-  0.4+    140103 H21  0.0   0.1-
    140102 G96  0.1+  0.1-    140102 033  0.4-  0.9+    140103 448  0.0   0.1-
    140102 G96  0.1-  0.1+    140103 033  0.0   0.3-    140103 H21  0.0   0.2-
    140102 G96  0.1-  0.0     140103 033  0.1-  0.9+    140103 448  0.1+  0.1+
    140102 A13  0.1+  0.0     140103 033  0.0   0.3-    140103 448  0.3-  0.1-
    140102 A13  0.5-  0.6-    140103 G96  0.1-  0.3-
    
    Ephemeris:
    2014 AG5                 a,e,i = 1.13, 0.04, 9                   q = 1.0911
    Date    TT    R. A. (2000) Decl.     Delta      r     Elong.  Phase     V
    2013 12 05    06 13 32.6 -07 45 36   0.1582  1.1159   143.0    32.1    20.0
    ...
    2013 12 20    05 42 29.1 +05 26 37   0.1469  1.1244   161.9    15.8    19.4
    ...
    2013 12 28    05 24 44.4 +13 48 19   0.1517  1.1291   162.5    15.2    19.4
    ...
    2014 01 03    05 13 21.5 +19 45 18   0.1608  1.1326   156.5    20.3    19.7
    2014 01 04    05 11 43.5 +20 41 09   0.1627  1.1332   155.3    21.3    19.8
    2014 01 05    05 10 10.8 +21 35 45   0.1648  1.1338   154.0    22.3    19.8
    ...
    2014 01 11    05 02 54.3 +26 35 09   0.1792  1.1373   146.6    28.5    20.2
    ...
    2014 01 19    04 58 50.0 +31 57 49   0.2032  1.1419   137.5    35.6    20.7
    ...
    2014 02 03    05 07 49.1 +38 44 33   0.2579  1.1501   124.1    45.2    21.5
    
    A. U. Tomatic                (C) Copyright 2014 MPC           M.P.E.C. 2014-A20
    

    Read MPEC 2014-A19 Read MPEC 2014-A21


    MPEC number:

    Enter an MPEC number in one of the following forms:

    • 1997-B01 (the full form)
    • J97B01 (the packed version of the full form)
    • B01 (the abbreviated form)